Starlink 4358

operational
NORAD ID: 53225 Int'l Des: 2022-084 Owner: SPXS Country: US Constellation: starlink
LEOCIRCULARRETROGRADESSO

Über Starlink 4358

Beschreibung wird geladen...

Live-Position

3D-Globus wird geladen...

Nächste Überflüge

Höhenverlauf

Altitude vs Time

uPlot chart will show altitude changes over time

Zweizeiliger Elementsatz

1 53225U 22084AN 25307.62980756 -.00000170 00000-0 -75359-5 0 9997
2 53225 97.6035 6.9166 0001685 91.7748 268.3672 15.05646363180410
Epoch: 3. Nov. 2025 • Age: 11 hours

Aktueller Status

Höhe 551.8 km
Geschwindigkeit 7.59 km/s
Subsatellitenpunkt 20.16°N, 74.55°W
Startdatum 22. Juli 2022
Alter 3.2 years
Typ internet

Technische Details

Klassifizierung Payload
Masse 297.00 kg
Trockenmasse 275.00 kg
Gesamtmasse 297.00 kg
Länge 0.20 m
Durchmesser 2.80 m
Spannweite 9.00 m
Form Box + pan
Hersteller SPXS
Bus-Typ Starlink
Phasenstatus In Orbit
Besitzer/Staat SPXS/US

Große Konstellationen

Loading constellations...